FW8600 Weather Reports


time (UTC)temp
C
wind
direction
speed
KPH
gust
KPH
rain 1hr
cm
rain 24hr
cm
rain mn
cm
humidity
%
barometer
mb
20260508210030 18 63 4.8 19.3 0.00 0.00 0.00 57 1014.3
20260508204530 18 286 9.7 17.7 0.00 0.00 0.00 57 1014.4
20260508203031 18 22 9.7 20.9 0.00 0.00 0.00 55 1014.4
20260508201535 18 316 4.8 19.3 0.00 0.00 0.00 58 1014.6
20260508200049 18 352 11.3 22.5 0.00 0.00 0.00 57 1014.7
20260508194532 18 322 12.9 20.9 0.00 0.00 0.00 56 1014.9
20260508193036 20 23 9.7 20.9 0.00 0.00 0.00 53 1015.3
20260508191538 18 349 9.7 22.5 0.00 0.00 0.00 54 1015.5
20260508190033 18 37 6.4 27.4 0.00 0.00 0.00 54 1015.7
20260508184532 18 321 9.7 19.3 0.00 0.00 0.00 53 1016.0
20260508183033 18 295 14.5 24.1 0.00 0.00 0.00 51 1016.3
20260508181531 19 328 9.7 19.3 0.00 0.00 0.00 48 1016.1
20260508180029 18 30 8.0 22.5 0.00 0.00 0.00 51 1016.5
20260508174537 18 326 9.7 17.7 0.00 0.00 0.00 52 1016.7
20260508173031 18 290 6.4 22.5 0.00 0.00 0.00 50 1016.8
20260508171536 17 61 4.8 14.5 0.00 0.00 0.00 54 1017.1
20260508170030 17 319 6.4 17.7 0.00 0.00 0.00 54 1017.4
20260508164531 17 329 11.3 19.3 0.00 0.00 0.00 54 1017.7
20260508163034 17 38 9.7 19.3 0.00 0.00 0.00 55 1017.8
20260508161533 17 26 9.7 17.7 0.00 0.00 0.00 54 1018.0
20260508160030 17 16 6.4 12.9 0.00 0.00 0.00 59 1018.2
20260508154532 17 22 6.4 12.9 0.00 0.00 0.00 58 1018.4
20260508153036 18 332 4.8 11.3 0.00 0.00 0.00 57 1018.4
20260508151529 18 84 0.0 4.8 0.00 0.00 0.00 59 1018.5
20260508150032 17 1 3.2 9.7 0.00 0.00 0.00 58 1018.5
20260508144530 16 104 4.8 8.0 0.00 0.00 0.00 62 1018.6
20260508143032 17 278 1.6 8.0 0.00 0.00 0.00 59 1018.8
20260508141533 16 82 1.6 6.4 0.00 0.00 0.00 61 1018.7
20260508140032 15 61 0.0 6.4 0.00 0.00 0.00 62 1018.8
20260508134531 13 26 3.2 6.4 0.00 0.00 0.00 64 1018.9
20260508133030 13 303 3.2 6.4 0.00 0.00 0.00 62 1018.9
20260508131532 12 23 0.0 6.4 0.00 0.00 0.00 70 1018.9
20260508130031 12 308 3.2 6.4 0.00 0.00 0.00 75 1018.7
20260508124530 11 355 1.6 4.8 0.00 0.03 0.00 79 1018.5
20260508123030 11 24 0.0 3.2 0.00 0.03 0.00 78 1018.5
20260508121530 11 62 0.0 1.6 0.00 0.03 0.00 86 1018.4
20260508120038 9 0 0.0 1.6 0.00 0.03 0.00 92 1018.3
20260508114531 7 0 0.0 0.0 0.00 0.28 0.00 95 1018.0
20260508113035 7 0 0.0 0.0 0.00 0.28 0.00 97 1017.6
20260508111533 6 0 0.0 1.6 0.00 0.28 0.00 98 1017.4
20260508110030 5 0 0.0 1.6 0.00 0.28 0.00 97 1017.2
20260508104531 6 83 0.0 1.6 0.00 0.30 0.00 98 1017.0
20260508103035 5 0 0.0 0.0 0.00 0.30 0.00 98 1016.5
20260508101531 5 0 0.0 0.0 0.00 0.30 0.00 98 1016.5
20260508100032 5 0 0.0 0.0 0.00 0.30 0.00 97 1016.2
20260508094531 6 0 0.0 1.6 0.00 0.30 0.00 98 1016.2
20260508093031 6 0 0.0 1.6 0.00 0.30 0.00 97 1016.2
20260508091536 6 0 0.0 3.2 0.00 0.30 0.00 97 1015.9
20260508090032 6 0 0.0 1.6 0.00 0.30 0.00 97 1016.2
20260508084532 6 0 0.0 1.6 0.00 0.30 0.00 97 1016.0
20260508083032 6 0 0.0 1.6 0.00 0.30 0.00 97 1015.8
20260508081542 6 0 0.0 1.6 0.00 0.30 0.00 97 1015.7
20260508080031 6 0 0.0 0.0 0.00 0.30 0.00 97 1015.5
20260508074530 6 0 0.0 0.0 0.00 0.30 0.00 97 1015.5
20260508073030 6 0 0.0 0.0 0.00 0.30 0.00 96 1015.4
20260508071530 7 0 0.0 0.0 0.00 0.30 0.00 96 1015.3
20260508070032 7 0 0.0 0.0 0.00 0.30 0.00 95 1015.2
20260508064532 7 0 0.0 0.0 0.00 0.30 0.00 95 1015.2
20260508063032 7 0 0.0 1.6 0.00 0.30 0.00 95 1015.0
20260508061531 7 0 0.0 1.6 0.00 0.30 0.00 94 1015.0
20260508060029 7 0 0.0 1.6 0.00 0.30 0.00 94 1015.1
20260508054532 7 0 0.0 0.0 0.00 0.43 0.00 94 1015.0
20260508053101 7 0 0.0 0.0 0.00 0.43 0.00 94 1015.1
20260508051535 8 0 0.0 0.0 0.00 0.43 0.00 94 1014.9
20260508050033 7 0 0.0 0.0 0.00 0.43 0.00 94 1014.7
20260508044531 7 0 0.0 0.0 0.00 0.56 0.00 94 1014.5
20260508043031 7 0 0.0 0.0 0.00 0.56 0.00 94 1014.5
20260508041534 8 0 0.0 0.0 0.00 0.56 0.00 93 1014.4
20260508040032 8 0 0.0 0.0 0.00 0.56 0.00 93 1014.4
20260508034534 8 0 0.0 1.6 0.00 0.56 0.56 92 1014.5
20260508033032 8 0 0.0 1.6 0.00 0.56 0.56 90 1014.5
20260508031532 8 0 0.0 1.6 0.00 0.56 0.56 89 1014.5
20260508030032 9 280 0.0 0.0 0.00 0.56 0.56 89 1014.5
20260508024533 9 0 0.0 0.0 0.00 0.61 0.56 87 1014.4
20260508023030 10 0 0.0 1.6 0.00 0.61 0.56 85 1014.0
20260508021534 10 0 0.0 1.6 0.00 0.61 0.56 83 1013.9
20260508020037 11 0 0.0 4.8 0.00 0.61 0.56 81 1013.7
20260508014530 11 0 0.0 0.0 0.00 0.66 0.56 78 1013.4
20260508013033 12 0 0.0 1.6 0.00 0.66 0.56 74 1013.2
20260508011530 13 0 0.0 6.4 0.00 0.66 0.56 71 1012.8
20260508010033 13 98 1.6 4.8 0.00 0.66 0.56 69 1012.7
20260508004530 13 120 1.6 6.4 0.00 0.99 0.56 69 1012.5
20260508003030 13 57 0.0 6.4 0.00 0.99 0.56 68 1012.3
20260508001529 14 134 4.8 20.9 0.00 0.99 0.56 68 1011.8
20260508000033 14 158 3.2 16.1 0.00 0.99 0.56 69 1011.7
20260507234539 15 104 3.2 14.5 0.00 1.19 0.56 70 1011.9
20260507233032 16 285 3.2 12.9 0.00 1.19 0.56 68 1011.7
20260507231531 16 53 3.2 11.3 0.00 1.19 0.56 69 1011.6
20260507230033 16 0 1.6 14.5 0.00 1.19 0.56 68 1011.6
20260507224533 17 34 3.2 9.7 0.00 1.22 0.56 68 1011.3
20260507223032 17 56 3.2 11.3 0.00 1.22 0.56 68 1011.0
20260507221530 17 283 6.4 19.3 0.00 1.22 0.56 68 1010.7
20260507220030 18 333 4.8 14.5 0.00 1.22 0.56 66 1010.4
20260507214531 20 56 1.6 8.0 0.00 1.22 0.56 64 1010.1
20260507213038 21 114 1.6 11.3 0.00 1.22 0.56 63 1009.8
20260507211534 21 12 1.6 16.1 0.00 1.22 0.56 63 1009.6